TimeEST,TemperatureF,Dew PointF,Humidity,Sea Level PressureIn,VisibilityMPH,Wind Direction,Wind SpeedMPH,Gust SpeedMPH,PrecipitationIn,Events,Conditions,WindDirDegrees,DateUTC
12:15 AM,45.5,40.5,83,29.57,10.0,South,20.7,29.9,0.01,Rain,Light Rain,190,2013-02-19 05:15:00
12:35 AM,45.5,41.0,84,29.57,7.0,SSW,20.7,27.6,0.02,Rain,Light Rain,200,2013-02-19 05:35:00
12:55 AM,45.7,41.2,84,29.56,5.0,SSW,19.6,32.2,0.04,Rain,Light Rain,200,2013-02-19 05:55:00
1:15 AM,38.5,33.3,81,29.63,7.0,West,26.5,36.8,0.04,Rain,Light Rain,280,2013-02-19 06:15:00
1:35 AM,35.1,31.1,85,29.65,7.0,West,17.3,31.1,0.04,Rain,Light Rain,280,2013-02-19 06:35:00
1:55 AM,33.8,30.0,86,29.66,4.0,West,16.1,27.6,0.04,Snow,Light Snow,280,2013-02-19 06:55:00
2:15 AM,33.8,30.6,88,29.68,10.0,West,23.0,27.6,N/A,Snow,Light Snow,270,2013-02-19 07:15:00
2:35 AM,33.8,30.6,88,29.68,10.0,West,23.0,39.1,N/A,,Overcast,260,2013-02-19 07:35:00
2:55 AM,32.9,29.5,87,29.69,10.0,West,26.5,32.2,N/A,,Overcast,270,2013-02-19 07:55:00
3:15 AM,32.0,28.2,86,29.69,10.0,West,18.4,32.2,N/A,,Overcast,270,2013-02-19 08:15:00
3:35 AM,31.6,27.3,84,29.70,10.0,West,21.9,29.9,N/A,,Overcast,270,2013-02-19 08:35:00
3:55 AM,30.2,23.9,77,29.72,10.0,West,27.6,40.3,N/A,,Overcast,270,2013-02-19 08:55:00
4:15 AM,29.3,22.8,77,29.73,10.0,West,27.6,39.1,N/A,,Overcast,270,2013-02-19 09:15:00
4:35 AM,29.1,22.6,77,29.74,10.0,West,25.3,36.8,N/A,,Overcast,260,2013-02-19 09:35:00
4:55 AM,28.9,22.5,77,29.74,10.0,WSW,26.5,32.2,N/A,,Overcast,250,2013-02-19 09:55:00
5:15 AM,27.7,20.1,73,29.76,10.0,West,24.2,35.7,N/A,,Overcast,260,2013-02-19 10:15:00
5:35 AM,27.3,19.4,72,29.77,10.0,West,27.6,35.7,N/A,,Overcast,270,2013-02-19 10:35:00
5:55 AM,27.5,20.1,74,29.77,10.0,West,20.7,32.2,N/A,,Overcast,270,2013-02-19 10:55:00
6:15 AM,27.5,21.0,77,29.78,10.0,West,17.3,23.0,N/A,,Overcast,270,2013-02-19 11:15:00
6:35 AM,27.5,17.8,67,29.78,10.0,West,24.2,38.0,N/A,,Overcast,260,2013-02-19 11:35:00
6:55 AM,27.3,18.5,69,29.79,10.0,West,25.3,32.2,N/A,,Overcast,260,2013-02-19 11:55:00
7:15 AM,26.1,17.6,70,29.80,10.0,West,23.0,38.0,N/A,,Overcast,260,2013-02-19 12:15:00
7:35 AM,25.5,16.3,68,29.81,10.0,West,24.2,34.5,N/A,,Overcast,260,2013-02-19 12:35:00
7:55 AM,25.0,15.3,67,29.83,10.0,West,19.6,34.5,N/A,,Overcast,280,2013-02-19 12:55:00
8:15 AM,24.8,16.0,69,29.83,10.0,West,26.5,33.4,N/A,Snow,Light Snow,260,2013-02-19 13:15:00
8:35 AM,24.8,15.8,69,29.84,10.0,West,25.3,33.4,N/A,Snow,Light Snow,270,2013-02-19 13:35:00
8:55 AM,24.8,17.1,72,29.84,4.0,West,19.6,26.5,N/A,Snow,Light Snow,260,2013-02-19 13:55:00
9:15 AM,25.5,17.8,72,29.85,10.0,West,24.2,31.1,N/A,Snow,Light Snow,260,2013-02-19 14:15:00
9:35 AM,25.0,18.7,77,29.86,2.0,WSW,21.9,31.1,N/A,Snow,Light Snow,250,2013-02-19 14:35:00
9:55 AM,23.5,16.7,75,29.87,2.5,WSW,23.0,33.4,N/A,Snow,Light Snow,250,2013-02-19 14:55:00
10:15 AM,23.7,14.7,69,29.88,10.0,West,21.9,35.7,N/A,Snow,Light Snow,270,2013-02-19 15:15:00
10:35 AM,23.5,14.9,70,29.88,7.0,West,27.6,36.8,N/A,Snow,Light Snow,260,2013-02-19 15:35:00
10:55 AM,23.7,15.4,71,29.89,7.0,West,21.9,33.4,N/A,Snow,Light Snow,260,2013-02-19 15:55:00
11:15 AM,23.9,15.3,70,29.89,5.0,West,23.0,33.4,N/A,Snow,Light Snow,260,2013-02-19 16:15:00
11:35 AM,24.3,15.8,70,29.89,5.0,West,21.9,32.2,N/A,Snow,Light Snow,270,2013-02-19 16:35:00
11:55 AM,23.9,16.3,73,29.90,2.5,West,18.4,32.2,N/A,Snow,Light Snow,260,2013-02-19 16:55:00
12:15 PM,23.9,16.3,73,29.90,2.5,West,13.8,29.9,N/A,Snow,Light Snow,260,2013-02-19 17:15:00
12:35 PM,23.5,14.0,67,29.91,10.0,West,27.6,39.1,N/A,Snow,Light Snow,270,2013-02-19 17:35:00
12:55 PM,22.8,15.6,74,29.92,2.0,West,19.6,32.2,N/A,Snow,Light Snow,280,2013-02-19 17:55:00
1:35 PM,23.5,14.5,69,29.92,10.0,West,20.7,31.1,N/A,Snow,Light Snow,260,2013-02-19 18:35:00
1:55 PM,23.5,15.6,72,29.92,4.0,West,20.7,29.9,N/A,Snow,Light Snow,270,2013-02-19 18:55:00
2:15 PM,23.4,15.3,71,29.93,5.0,West,26.5,35.7,N/A,Snow,Light Snow,260,2013-02-19 19:15:00
2:35 PM,23.4,14.5,69,29.94,4.0,West,20.7,31.1,N/A,Snow,Light Snow,270,2013-02-19 19:35:00
2:55 PM,22.8,13.1,66,29.95,10.0,West,29.9,35.7,N/A,Snow,Light Snow,270,2013-02-19 19:55:00
3:15 PM,23.0,13.1,66,29.96,10.0,West,18.4,31.1,N/A,Snow,Light Snow,270,2013-02-19 20:15:00
3:35 PM,23.2,13.8,67,29.96,10.0,West,21.9,34.5,N/A,Snow,Light Snow,260,2013-02-19 20:35:00
3:55 PM,23.5,15.4,71,29.98,4.0,West,25.3,31.1,N/A,Snow,Light Snow,260,2013-02-19 20:55:00
4:15 PM,22.1,14.4,72,29.99,2.5,West,19.6,34.5,N/A,Snow,Light Snow,260,2013-02-19 21:15:00
4:35 PM,22.1,12.6,67,30.01,10.0,West,15.0,35.7,N/A,,Overcast,280,2013-02-19 21:35:00
4:55 PM,22.1,13.1,68,30.01,10.0,West,18.4,31.1,N/A,Snow,Light Snow,270,2013-02-19 21:55:00
5:15 PM,22.1,13.8,70,30.02,5.0,West,21.9,34.5,N/A,Snow,Light Snow,270,2013-02-19 22:15:00
5:35 PM,22.5,13.3,68,30.03,10.0,West,20.7,27.6,N/A,,Overcast,270,2013-02-19 22:35:00
5:55 PM,22.6,13.8,69,30.04,7.0,West,18.4,33.4,N/A,Snow,Light Snow,270,2013-02-19 22:55:00
6:15 PM,22.8,13.5,67,30.05,7.0,West,19.6,35.7,N/A,Snow,Light Snow,270,2013-02-19 23:15:00
6:35 PM,22.5,11.7,63,30.06,10.0,West,17.3,32.2,N/A,,Overcast,270,2013-02-19 23:35:00
7:35 PM,22.8,13.8,68,30.07,10.0,West,15.0,26.5,N/A,,Overcast,270,2013-02-20 00:35:00
7:55 PM,23.0,12.6,64,30.07,10.0,West,19.6,33.4,N/A,,Overcast,260,2013-02-20 00:55:00
8:15 PM,23.0,12.2,63,30.08,10.0,West,15.0,28.8,N/A,,Overcast,270,2013-02-20 01:15:00
8:55 PM,23.4,12.7,64,30.08,10.0,West,21.9,28.8,N/A,,Overcast,280,2013-02-20 01:55:00
9:15 PM,23.2,11.5,61,30.09,10.0,West,23.0,34.5,N/A,,Overcast,280,2013-02-20 02:15:00
9:35 PM,23.0,12.2,63,30.09,10.0,West,18.4,23.0,N/A,,Overcast,280,2013-02-20 02:35:00
9:55 PM,22.8,11.1,61,30.10,10.0,West,28.8,34.5,N/A,,Overcast,270,2013-02-20 02:55:00
10:15 PM,22.6,10.2,59,30.11,10.0,West,25.3,33.4,N/A,,Overcast,280,2013-02-20 03:15:00
10:35 PM,22.1,10.0,60,30.11,10.0,West,18.4,36.8,N/A,,Overcast,280,2013-02-20 03:35:00
10:55 PM,22.1,10.0,60,30.11,10.0,West,20.7,34.5,N/A,,Overcast,280,2013-02-20 03:55:00
11:15 PM,21.9,9.5,59,30.12,10.0,WNW,15.0,32.2,N/A,,Overcast,290,2013-02-20 04:15:00
11:35 PM,21.9,10.4,61,30.11,10.0,West,15.0,28.8,N/A,,Overcast,280,2013-02-20 04:35:00
11:55 PM,21.7,10.8,63,30.12,10.0,West,18.4,26.5,N/A,Snow,Light Snow,280,2013-02-20 04:55:00